Cleveland, OH

5:10 PM EST on February 24, 2018 (GMT -0500)
Cleveland-Hopkins International

Weather History for KCLE - January, 2014

Change the Weather History Date:

Wednesday, January 29, 2014

  Actual Average Record
Temperature  
Mean Temperature 7 °F 28 °F  
Max Temperature 16 °F 35 °F 65 °F (1914)
Min Temperature -2 °F 22 °F -17 °F (1873)
Degree Days  
Heating Degree Days 58 37  
Month to date heating degree days 1260 1072  
Since 1 July heating degree days 3424 3179  
Cooling Degree Days 0 0  
Month to date cooling degree days 0 0  
Year to date cooling degree days 0 0  
Moisture  
Dew Point -6 °F    
Average Humidity 58    
Maximum Humidity 69    
Minimum Humidity 46    
Precipitation  
Precipitation 0.00 in 0.08 in 0.49 in (1968)
Month to date precipitation 2.00 2.57  
Year to date precipitation 2.00 2.57  
Snow  
Snow 0.00 in 0.60 in - ()
Month to date snowfall 23.7 17.5  
Since 1 July snowfall 45.9 36.1  
Snow Depth 5.00 in    
Sea Level Pressure  
Sea Level Pressure 30.29 in    
Wind  
Wind Speed 14 mph (SW)    
Max Wind Speed 28 mph    
Max Gust Speed 37 mph    
Visibility 10 miles    
Events      
T = Trace of Precipitation, MM = Missing Value Source: NWS Daily Summary

Daily Weather History Graph

Daily Weather History Graph

Search for Another Location

Airport or City:

Trip Planner

Search our weather history database for the weather conditions in past years. The results will help you decide how hot, cold, wet, or windy it might be!

Date:

Astronomy

Jan. 29, 2014 Rise Set
Actual Time 7:41 AM EST 5:39 PM EST
Civil Twilight 7:12 AM EST 6:09 PM EST
Nautical Twilight 6:38 AM EST 6:42 PM EST
Astronomical Twilight 6:06 AM EST 7:15 PM EST
Moon 6:17 AM EST (1/29) 4:38 PM EST (1/29)
Length of Visible Light 10h 57m
Length of Day
9h 58m
Waning Crescent, 2% of the Moon is Illuminated
Jan 29
Waning Crescent
Jan 30
New
Feb 6
First Quarter
Feb 14
Full
Feb 22
Last Quarter

Hourly Weather History & Observations

Time (EST) Temp. Windchill Dew Point Humidity Pressure Visibility Wind Dir Wind Speed Gust Speed Precip Events Conditions
12:51 AM -0.9 °F -18.3 °F -14.1 °F 54% 30.32 in 10.0 mi SSW 11.5 mph - N/A   Clear
1:51 AM -0.9 °F -18.3 °F -13.0 °F 57% 30.30 in 10.0 mi SSW 11.5 mph - N/A   Clear
2:51 AM -0.9 °F -17.4 °F -11.9 °F 60% 30.30 in 10.0 mi SSW 10.4 mph - N/A   Clear
3:51 AM -0.9 °F -15.3 °F -11.0 °F 62% 30.29 in 10.0 mi SW 8.1 mph - N/A   Clear
4:51 AM -0.0 °F -14.2 °F -9.9 °F 63% 30.27 in 10.0 mi SW 8.1 mph - N/A   Clear
5:51 AM -0.9 °F -17.4 °F -9.9 °F 66% 30.27 in 10.0 mi SSW 10.4 mph - N/A   Clear
6:51 AM -0.0 °F -18.0 °F -9.0 °F 66% 30.25 in 10.0 mi SSW 12.7 mph - N/A   Clear
7:51 AM 1.9 °F -15.5 °F -8.0 °F 63% 30.27 in 10.0 mi SW 12.7 mph - N/A   Clear
8:51 AM 6.1 °F -13.3 °F -7.1 °F 55% 30.27 in 10.0 mi WSW 18.4 mph 25.3 mph N/A   Clear
9:51 AM 8.1 °F -8.4 °F -5.1 °F 55% 30.27 in 10.0 mi WSW 13.8 mph 25.3 mph N/A   Clear
10:51 AM 10.9 °F -5.4 °F -4.0 °F 51% 30.28 in 9.0 mi SW 15.0 mph 26.5 mph N/A   Clear
11:51 AM 12.0 °F -7.7 °F -4.0 °F 49% 30.28 in 9.0 mi SW 24.2 mph 31.1 mph N/A   Clear
12:51 PM 12.9 °F -5.3 °F -4.0 °F 47% 30.25 in 8.0 mi SW 20.7 mph 32.2 mph N/A   Clear
1:51 PM 15.1 °F -2.5 °F -2.9 °F 45% 30.25 in 10.0 mi WSW 20.7 mph 27.6 mph N/A   Clear
2:51 PM 16.0 °F -2.1 °F -2.0 °F 45% 30.25 in 10.0 mi SW 23.0 mph 28.8 mph N/A   Clear
3:51 PM 16.0 °F -1.3 °F -0.9 °F 47% 30.25 in 10.0 mi SW 20.7 mph 28.8 mph N/A   Clear
4:51 PM 16.0 °F -1.3 °F -0.9 °F 47% 30.27 in 10.0 mi SW 20.7 mph - N/A   Clear
5:51 PM 15.1 °F -0.1 °F -2.0 °F 47% 30.30 in 10.0 mi SW 15.0 mph 24.2 mph N/A   Clear
6:51 PM 14.0 °F 0.5 °F -2.0 °F 49% 30.32 in 10.0 mi SW 11.5 mph - N/A   Clear
7:51 PM 14.0 °F 1.2 °F -2.0 °F 49% 30.32 in 10.0 mi SSW 10.4 mph - N/A   Clear
8:51 PM 12.0 °F -1.3 °F -2.0 °F 53% 30.32 in 10.0 mi SSW 10.4 mph - N/A   Clear
9:51 PM 12.0 °F -2.0 °F -2.0 °F 53% 30.33 in 10.0 mi SSW 11.5 mph - N/A   Clear
10:51 PM 12.9 °F -0.2 °F -2.0 °F 51% 30.32 in 10.0 mi South 10.4 mph - N/A   Clear
11:51 PM 14.0 °F -0.2 °F -0.9 °F 52% 30.32 in 10.0 mi SSW 12.7 mph - N/A   Clear